Regional Weather Roundup
Issued by NWS

Home | Current Version | Previous Version | Text Only | Print | Product List | Glossary On
Versions: 1 2 3 4 5 6 7 8 9 10 11 12 13 14 15 16 17 18 19 20 21 22 23 24 25 26 27 28 29 30 31 32 33 34 35 36 37 38 39 40 41 42 43 44 45 46 47 48 49 50
074
ASUS43 KMPX 132201
RWRMN
WEATHER ROUNDUP FOR MINNESOTA
NATIONAL WEATHER SERVICE TWIN CITIES/CHANHASSEN MN
400 PM CST SAT FEB 13 2016


NOTE: "FAIR" INDICATES FEW OR NO CLOUDS BELOW 12,000 FEET WITH NO
SIGNIFICANT WEATHER AND/OR OBSTRUCTIONS TO VISIBILITY. N/A MEANS
CURRENT SKY AND/OR WEATHER CONDITIONS ARE NOT AVAILABLE.

MNZ060>063-068>070-132300-
   Twin Cities Metro

CITY           SKY/WX    TMP DP  RH WIND       PRES   REMARKS
TWIN CITIES    MOSUNNY   10 -10  40 SE9       30.47F WCI  -3
ST PAUL        SUNNY      9  -8  46 S6        30.50F WCI  -1
CRYSTAL        SUNNY     12  -7  42 SE9       30.44F WCI   0
BLAINE         MOSUNNY   14  -8  37 SE6       30.45F WCI   5
LAKEVILLE      SUNNY      7  -8  51 SE8       30.46S WCI  -6
EDEN PRAIRIE   SUNNY     11  -6  46 SE9       30.45F WCI  -2
SOUTH ST PAUL  SUNNY     10 -10  39 S6        30.48F WCI   0
LAKE ELMO      FAIR      12  -8  40 SE6       30.48S WCI   3
$$
MNZ001>005-007-008-013>017-022>024-027-028-132300-
   Northwest Minnesota

CITY           SKY/WX    TMP DP  RH WIND       PRES   REMARKS
BEMIDJI        SUNNY      8  -9  45 E10       30.31F WCI  -6
HALLOCK        CLOUDY     9  -4  56 SE20      30.26F WCI -11
ROSEAU         CLOUDY     9  -6  52 E8        30.31F WCI  -4
WARROAD        CLOUDY     5  -6  61 NE5       30.32F WCI  -4
THIEF RVR FALL CLOUDY    10 -11  37 SE14      30.29F WCI  -5
CROOKSTON      CLOUDY    10  -2  56 SE17      30.30F WCI  -7
FOSSTON        SUNNY     18  -6  35 SE8       30.28F WCI   7
DETROIT LAKES  CLOUDY    12  -6  44 SE16      30.28F WCI  -4
MOORHEAD       CLOUDY    12   0  57 S21       30.29F WCI  -6
PARK RAPIDS    SUNNY     11 -10  38 SE13      30.30F WCI  -4
MAHNOMEN       FAIR      10  -4  51 S7        30.28F WCI   0
$$
MNZ006-009>011-018-025>026-132300-
   North Central Minnesota

CITY           SKY/WX    TMP DP  RH WIND       PRES   REMARKS
BAUDETTE       CLOUDY     7 -14  37 SE7       30.32F WCI  -5
FLAG ISLAND    CLOUDY     1 -13  51 SE5       30.34F WCI  -8
INTL FALLS     CLOUDY     6 -12  43 NE7       30.38F WCI  -6
WASKISH        CLOUDY    12  -9  37 SE8       30.34S WCI   1
LONGVILLE      SUNNY     10 -13  34 SE5       30.35F WCI   2
GRAND RAPIDS   SUNNY      9 -11  40 SE10      30.37F WCI  -6
CRANE LAKE     SUNNY      7 -17  33 NW1       30.42F
ORR            CLOUDY     9 -18  28 CALM      30.35F
COOK           SUNNY      9 -15  33 CALM      30.37F
WALKER         FAIR       9 -10  40 SE7       30.34F WCI  -2
$$
MNZ012-019>021-037-132300-
   Northeast Minnesota

CITY           SKY/WX    TMP DP  RH WIND       PRES   REMARKS
DULUTH         SUNNY      9 -14  34 SW5       30.37F WCI   1
ELY            SUNNY      7 -11  43 CALM      30.37F
HIBBING        SUNNY      8 -15  34 SE6       30.36F WCI  -2
EVELETH        SUNNY     10 -15  31 CALM      30.38F
DULUTH HARBOR  SUNNY     10 -11  37 S5        30.47F WCI   2
TWO HARBORS    SUNNY     12  -4  48 S10       30.39S WCI  -1
SILVER BAY     SUNNY     10  -2  56 S7        30.39S WCI   0
GRAND MARAIS     N/A     12   2  64 SW12      30.46F WCI  -2
G MARAIS ARPRT SUNNY      7  -8  51 S5        30.34R WCI  -2
$$
MNZ029>031-032-039>041-046>048-054>057-064-132300-
   West Central Minnesota

CITY           SKY/WX    TMP DP  RH WIND       PRES   REMARKS
FERGUS FALLS   CLOUDY    10   0  61 SE17G23   30.34F WCI  -7
WHEATON        CLOUDY    10   1  67 SE18      30.31F WCI  -8
MORRIS         CLOUDY    10   1  67 SE18      30.30F WCI  -8
ALEXANDRIA     CLOUDY    10  -3  55 SE14      30.32F WCI  -6
ELBOW LAKE     CLOUDY    12   1  62 SE21G26   30.30F HAZE    WCI  -7
WADENA         CLOUDY     9  -8  47 SE12      30.32F WCI  -6
GLENWOOD       CLOUDY    10   0  61 SE14      30.34F WCI  -5
APPLETON       CLOUDY    10   1  67 SE13G21   30.33F WCI  -5
BENSON         CLOUDY    12  -2  52 S13G18    30.34F WCI  -3
ORTONVILLE     CLOUDY     9   0  66 SE17G25   30.30F WCI -10
MADISON        CLOUDY    10   3  72 SE20      30.32F WCI  -8
WILLMAR        PTSUNNY   12   1  62 S14       30.38F WCI  -3
$$
MNZ033>034-036-042>043-049>051-058-059-132300-
   Central Minnesota

CITY           SKY/WX    TMP DP  RH WIND       PRES   REMARKS
ST CLOUD       SUNNY      9  -6  50 SE9       30.41F WCI  -4
SAUK CENTRE    FAIR      10  -3  54 SE15      30.36F WCI  -6
PAYNESVILLE    MOSUNNY   12  -3  51 SE13      30.38F WCI  -3
AITKIN         SUNNY     10 -17  28 S5        30.38F WCI   2
PINE RIVER     SUNNY      9  -8  47 SE8       30.38F WCI  -4
BRAINERD       SUNNY      8  -9  45 SE9       30.38F WCI  -5
STAPLES        SUNNY      9 -11  40 SE6       30.34F WCI  -1
LONG PRAIRIE   FAIR       9  -6  52 SE8       30.37F WCI  -4
LITTLE FALLS   SUNNY     10  -8  44 SE12      30.39F WCI  -4
LITCHFIELD     SUNNY     10  -2  56 SE9       30.40F WCI  -2
BUFFALO        SUNNY     11  -9  40 SE7       30.45F WCI   1
MAPLE LAKE     SUNNY     12  -4  48 SE6       30.43F WCI   3
$$
MNZ037-044-045-052-053-132300-
   East Central Minnesota

CITY           SKY/WX    TMP DP  RH WIND       PRES   REMARKS
PRINCETON      SUNNY     12  -8  40 S5        30.43F WCI   4
MORA           SUNNY     10  -9  40 SE5       30.46F WCI   2
CAMBRIDGE      SUNNY     12  -4  48 CALM      30.43F
RUSH CITY      SUNNY     10  -9  42 S6        30.46F WCI   0
MOOSE LAKE     SUNNY     10 -13  34 S5        30.41F WCI   2
HINCKLEY       FAIR      10  -6  48 S5        30.45F WCI   2
CLOQUET        SUNNY      9 -17  31 SW3       30.39F
MCGREGOR       SUNNY     12  -9  37 S3        30.40F
$$
MNZ071>073-080-081-089-090-097-098-132300-
   Southwest Minnesota

CITY           SKY/WX    TMP DP  RH WIND       PRES   REMARKS
MONTEVIDEO     CLOUDY     9   0  66 S15       30.36F WCI  -8
GRANITE FALLS  CLOUDY    10   2  70 SE15      30.37F WCI  -6
CANBY          CLOUDY    14   4  64 SE15G22   30.31F WCI  -2
MARSHALL       CLOUDY    10   0  63 S18       30.33F WCI  -8
REDWOOD FALLS  CLOUDY     8   0  69 SE17      30.38F WCI -10
OLIVIA         CLOUDY    10   0  61 SE14      30.38F WCI  -5
PIPESTONE      CLOUDY    10  -4  52 S14G20    30.26F WCI  -5
WINDOM         CLOUDY     9   0  66 SE14      30.35F WCI  -8
WORTHINGTON    CLOUDY     7  -2  66 SE15      30.32F WCI -11
JACKSON        CLOUDY    10   0  61 SE12      30.36F WCI  -4
TRACY          CLOUDY    10   1  69 S14G22    30.33F WCI  -7
SLAYTON        CLOUDY     7   0  73 SE18      30.30F WCI -12
$$
MNZ065>067-074>077-082>085-091>093-132300-
   South Central Minnesota

CITY           SKY/WX    TMP DP  RH WIND       PRES   REMARKS
MANKATO        CLOUDY     9  -2  61 S13       30.43F WCI  -7
NEW ULM        PTSUNNY    7  -2  66 SE10      30.41F WCI  -8
ST JAMES       CLOUDY    10   3  72 SE14      30.41F WCI  -5
FAIRMONT       CLOUDY     9   0  66 SE15      30.38F WCI  -8
GLENCOE        SUNNY     11  -1  56 SE9       30.42F WCI  -1
FARIBAULT      CLOUDY    10  -2  56 SE6       30.45F WCI   1
OWATONNA       SUNNY      9  -6  52 S10       30.43F WCI  -6
WASECA         CLOUDY    10   0  61 SE9       30.45F WCI  -2
ALBERT LEA     CLOUDY     7  -6  56 S10       30.43F WCI  -8
$$
MNZ078>079-086>088-094>096-132300-
   Southeast Minnesota

CITY           SKY/WX    TMP DP  RH WIND       PRES   REMARKS
ROCHESTER      CLOUDY     5  -7  57 S6        30.44F WCI  -6
RED WING       SUNNY     10  -9  40 SE7       30.48F WCI   0
STANTON        SUNNY     11  -8  42 S5        30.45F WCI   3
DODGE CENTER   MOSUNNY    7  -9  47 S7        30.43F WCI  -5
WINONA         SUNNY     14  -6  41 CALM      30.51F
AUSTIN         SUNNY      3  -6  66 SE5       30.44F WCI  -6
PRESTON        CLOUDY     7  -8  48 S5        30.45F WCI  -2
$$
ABBREVIATIONS USED IN REMARKS
   TC - TEMPERATURES IN CELSIUS
  WCI - WIND CHILL INDEX
   HX - HEAT INDEX
  VSB - VISIBILITY
$$




USA.gov is the U.S. government's official web portal to all federal, state and local government web resources and services.